User: anonymous   Login
Location: Curicchi
(45.0167°N, 12.0500°E)
Time: 13:12:12
(UTC+00:00)
Language:

Cosmos 1709 Rocket - Orbit

View from above orbital plane
View from above orbital plane
View from above satellite
View from above satellite

Ground track
Ground track

The orbit data is extracted from the following two-line orbital elements,

1 16369U 85116B   21125.42243550  .00000052  00000-0  37117-4 0  9992
2 16369  82.9406  13.4793 0037000 147.9526  24.8483 13.76877009776835
Epoch (UTC): 05 May 2021 10:08:18
Eccentricity: 0.0037000
inclination: 82.9406°
perigee height: 948 km
apogee height: 1002 km
right ascension of ascending node: 13.4793°
argument of perigee: 147.9526°
revolutions per day: 13.76877009
mean anomaly at epoch: 24.8483°
orbit number at epoch: 77683

The dashed part of the orbit path shows where the satellite is in the earth's shadow,  

DLR